When you browse on this site, cookies collect data to enhance your experience and personalize the content and advertising you see.
Visit our Privacy Policy to learn more. By continuing to use the site, you agree to this use of cookies and data.
  • In Czech Republic
  • List of Countries
  • For 7 days
  • Water Temperature
  • Weather Map
  • Weather Widgets
  • user-avatar
    Login

    Hourly Weather La Garde

    Today, 4 June, Thursday

    Time Temperature Precipitation Wind Pressure Humidity
    00:00 +19°C° 0.1 mm 3 mps 748 mmHg 83%
    01:00 +19°C° 1.3 mm 3 mps 748 mmHg 87%
    02:00 +18°C° 1.3 mm 2 mps 747 mmHg 90%
    03:00 +18°C° 1.3 mm 2 mps 747 mmHg 93%
    04:00 +18°C° 2.1 mm 2 mps 746 mmHg 93%
    05:00 +18°C° 2.1 mm 3 mps 746 mmHg 93%
    06:00 +18°C° 2.1 mm 3 mps 745 mmHg 94%
    07:00 +18°C° 1.2 mm 3 mps 745 mmHg 93%
    08:00 +18°C° 1.2 mm 3 mps 745 mmHg 93%
    09:00 +18°C° 1.2 mm 3 mps 745 mmHg 93%
    10:00 +18°C° 1.8 mm 3 mps 745 mmHg 93%
    11:00 +18°C° 1.8 mm 4 mps 745 mmHg 92%
    12:00 +17°C° 1.8 mm 5 mps 745 mmHg 91%
    13:00 +17°C° 0.2 mm 5 mps 745 mmHg 86%
    14:00 +19°C° 0.2 mm 4 mps 744 mmHg 82%
    15:00 +19°C° 0.2 mm 4 mps 744 mmHg 77%
    16:00 +19°C° 0 mm 5 mps 744 mmHg 74%
    17:00 +19°C° 0 mm 6 mps 744 mmHg 71%
    18:00 +20°C° 0 mm 7 mps 744 mmHg 68%
    19:00 +18°C° 0 mm 7 mps 744 mmHg 69%
    20:00 +18°C° 0 mm 8 mps 744 mmHg 69%
    21:00 +17°C° 0 mm 8 mps 744 mmHg 70%
    22:00 +17°C° 0 mm 8 mps 744 mmHg 71%
    23:00 +16°C° 0 mm 8 mps 744 mmHg 73%

    Tomorrow, 5 June, Friday

    Time Temperature Precipitation Wind Pressure Humidity
    00:00 +16°C° 0 mm 8 mps 744 mmHg 74%
    01:00 +16°C° 0 mm 9 mps 744 mmHg 71%
    02:00 +16°C° 0 mm 10 mps 744 mmHg 68%
    03:00 +16°C° 0 mm 11 mps 744 mmHg 64%
    04:00 +15°C° 0 mm 12 mps 744 mmHg 61%
    05:00 +17°C° 0 mm 13 mps 744 mmHg 58%
    06:00 +17°C° 0 mm 14 mps 745 mmHg 55%
    07:00 +18°C° 0 mm 14 mps 745 mmHg 53%
    08:00 +19°C° 0 mm 14 mps 745 mmHg 51%
    09:00 +20°C° 0 mm 14 mps 746 mmHg 48%
    10:00 +20°C° 0 mm 14 mps 746 mmHg 45%
    11:00 +22°C° 0 mm 14 mps 746 mmHg 41%
    12:00 +23°C° 0 mm 13 mps 747 mmHg 37%
    13:00 +23°C° 0 mm 13 mps 747 mmHg 37%
    14:00 +24°C° 0 mm 13 mps 747 mmHg 37%
    15:00 +24°C° 0 mm 12 mps 747 mmHg 37%
    16:00 +23°C° 0 mm 12 mps 747 mmHg 40%
    17:00 +23°C° 0 mm 12 mps 748 mmHg 43%
    18:00 +22°C° 0 mm 12 mps 748 mmHg 46%
    19:00 +21°C° 0 mm 11 mps 749 mmHg 49%
    20:00 +19°C° 0 mm 11 mps 749 mmHg 51%
    21:00 +19°C° 0 mm 10 mps 750 mmHg 53%
    22:00 +18°C° 0 mm 10 mps 750 mmHg 55%
    23:00 +18°C° 0 mm 10 mps 750 mmHg 57%

    Day after tomorrow, 6 June, Saturday

    Time Temperature Precipitation Wind Pressure Humidity
    00:00 +18°C° 0 mm 10 mps 750 mmHg 59%
    01:00 +17°C° 0 mm 10 mps 751 mmHg 62%
    02:00 +17°C° 0 mm 9 mps 751 mmHg 66%
    03:00 +16°C° 0 mm 9 mps 751 mmHg 69%
    04:00 +17°C° 0 mm 9 mps 751 mmHg 66%
    05:00 +18°C° 0 mm 9 mps 751 mmHg 64%
    06:00 +18°C° 0 mm 9 mps 751 mmHg 62%
    07:00 +21°C° 0 mm 8 mps 752 mmHg 57%
    08:00 +22°C° 0 mm 8 mps 752 mmHg 52%
    09:00 +24°C° 0 mm 8 mps 752 mmHg 47%
    10:00 +26°C° 0 mm 8 mps 752 mmHg 45%
    11:00 +27°C° 0 mm 8 mps 752 mmHg 43%
    12:00 +28°C° 0 mm 9 mps 752 mmHg 41%
    13:00 +27°C° 0 mm 8 mps 752 mmHg 43%
    14:00 +27°C° 0 mm 8 mps 751 mmHg 45%
    15:00 +27°C° 0 mm 8 mps 751 mmHg 47%
    16:00 +26°C° 0 mm 7 mps 751 mmHg 52%
    17:00 +24°C° 0 mm 7 mps 751 mmHg 57%
    18:00 +23°C° 0 mm 6 mps 751 mmHg 62%
    19:00 +22°C° 0 mm 5 mps 751 mmHg 67%
    20:00 +21°C° 0 mm 5 mps 751 mmHg 72%
    21:00 +20°C° 0 mm 4 mps 752 mmHg 77%
    22:00 +19°C° 0 mm 3 mps 751 mmHg 79%
    23:00 +19°C° 0 mm 2 mps 751 mmHg 80%

    7 June, Sunday

    Time Temperature Precipitation Wind Pressure Humidity
    00:00 +19°C° 0 mm 2 mps 751 mmHg 81%
    01:00 +20°C° 0 mm 1 mps 750 mmHg 81%
    02:00 +20°C° 0 mm 1 mps 750 mmHg 82%
    03:00 +20°C° 0 mm 1 mps 750 mmHg 82%
    04:00 +19°C° 0.4 mm 2 mps 750 mmHg 82%
    05:00 +19°C° 0.4 mm 2 mps 750 mmHg 82%
    06:00 +19°C° 0.4 mm 3 mps 750 mmHg 83%
    07:00 +21°C° 0 mm 3 mps 750 mmHg 74%
    08:00 +24°C° 0 mm 3 mps 751 mmHg 65%
    09:00 +25°C° 0 mm 4 mps 751 mmHg 56%
    10:00 +25°C° 0.1 mm 5 mps 751 mmHg 54%
    11:00 +26°C° 0.1 mm 6 mps 751 mmHg 52%
    12:00 +26°C° 0.1 mm 7 mps 751 mmHg 50%
    13:00 +26°C° 0 mm 7 mps 751 mmHg 48%
    14:00 +26°C° 0 mm 8 mps 751 mmHg 46%
    15:00 +27°C° 0 mm 8 mps 750 mmHg 43%
    16:00 +26°C° 0 mm 8 mps 750 mmHg 48%
    17:00 +24°C° 0 mm 8 mps 750 mmHg 52%
    18:00 +23°C° 0 mm 7 mps 750 mmHg 57%
    19:00 +22°C° 0 mm 7 mps 751 mmHg 56%
    20:00 +21°C° 0 mm 6 mps 751 mmHg 55%
    21:00 +20°C° 0 mm 6 mps 751 mmHg 55%
    22:00 +20°C° 0 mm 6 mps 751 mmHg 57%
    23:00 +19°C° 0 mm 6 mps 751 mmHg 59%

    8 June, Monday

    Time Temperature Precipitation Wind Pressure Humidity
    00:00 +19°C° 0 mm 6 mps 751 mmHg 60%
    01:00 +17°C° 0 mm 6 mps 751 mmHg 62%
    02:00 +16°C° 0 mm 6 mps 751 mmHg 63%
    03:00 +15°C° 0 mm 6 mps 751 mmHg 64%
    04:00 +16°C° 0 mm 6 mps 751 mmHg 62%
    05:00 +16°C° 0 mm 6 mps 751 mmHg 60%
    06:00 +17°C° 0 mm 6 mps 752 mmHg 57%
    07:00 +18°C° 0 mm 7 mps 752 mmHg 51%
    08:00 +21°C° 0 mm 7 mps 752 mmHg 44%
    09:00 +22°C° 0 mm 8 mps 752 mmHg 38%
    10:00 +23°C° 0 mm 8 mps 753 mmHg 36%
    11:00 +24°C° 0 mm 9 mps 753 mmHg 35%
    12:00 +26°C° 0 mm 9 mps 753 mmHg 33%
    13:00 +26°C° 0 mm 9 mps 753 mmHg 33%
    14:00 +26°C° 0 mm 10 mps 752 mmHg 33%
    15:00 +26°C° 0 mm 10 mps 752 mmHg 33%
    16:00 +24°C° 0 mm 9 mps 752 mmHg 36%
    17:00 +23°C° 0 mm 9 mps 752 mmHg 39%
    18:00 +22°C° 0 mm 9 mps 752 mmHg 42%
    19:00 +21°C° 0 mm 8 mps 753 mmHg 44%
    20:00 +20°C° 0 mm 8 mps 753 mmHg 47%
    21:00 +18°C° 0 mm 7 mps 753 mmHg 49%
    22:00 +18°C° 0 mm 7 mps 754 mmHg 53%
    23:00 +17°C° 0 mm 8 mps 754 mmHg 57%

    9 June, Tuesday

    Time Temperature Precipitation Wind Pressure Humidity
    00:00 +16°C° 0 mm 8 mps 754 mmHg 61%
    01:00 +16°C° 0 mm 8 mps 754 mmHg 65%
    02:00 +15°C° 0 mm 7 mps 753 mmHg 68%
    03:00 +14°C° 0 mm 7 mps 753 mmHg 71%
    04:00 +15°C° 0 mm 7 mps 753 mmHg 69%
    05:00 +16°C° 0 mm 6 mps 754 mmHg 67%
    06:00 +16°C° 0 mm 6 mps 754 mmHg 65%
    07:00 +19°C° 0 mm 6 mps 754 mmHg 59%
    08:00 +21°C° 0 mm 6 mps 754 mmHg 53%
    09:00 +23°C° 0 mm 5 mps 754 mmHg 48%
    10:00 +25°C° 0 mm 5 mps 755 mmHg 45%
    11:00 +26°C° 0 mm 6 mps 755 mmHg 43%
    12:00 +27°C° 0 mm 6 mps 755 mmHg 41%
    13:00 +27°C° 0 mm 7 mps 755 mmHg 42%
    14:00 +27°C° 0 mm 7 mps 754 mmHg 43%
    15:00 +26°C° 0 mm 8 mps 754 mmHg 44%
    16:00 +26°C° 0 mm 8 mps 754 mmHg 44%
    17:00 +24°C° 0 mm 7 mps 754 mmHg 45%
    18:00 +23°C° 0 mm 7 mps 754 mmHg 45%
    19:00 +22°C° 0 mm 7 mps 755 mmHg 48%
    20:00 +21°C° 0 mm 6 mps 755 mmHg 50%
    21:00 +19°C° 0 mm 5 mps 755 mmHg 52%
    22:00 +17°C° 0 mm 5 mps 755 mmHg 56%
    23:00 +17°C° 0 mm 5 mps 755 mmHg 61%
    Show more